INTELSAT 33E DEB, 64401

Orbit data source: Space-Track

INTELSAT 33E DEB, 64401 is space debris in GEO originally from a launch on Wed, 24 Aug 2016 UTC launched from the French Guiana (FRGUI). Debris objects in space refer to the collection of defunct objects orbiting the Earth. Examples of debris include non-operational satellites, rocket bodies, and fragments generated from explosions, collisions, or faulty payload assembly.

Not visible in the next 10 days
Identifier
64401, 2016-053AF
Orbit
GEO
Country
Flag of USUS / ITSO
Related business
Manufacturer
Boeing/ES
Mission
Spacecraft
Bus & Motor
Unknown
Mass
Unknown
Launch date (UTC)
2016-08-24 (10 years ago)
Launch vehicle
Unknown
Launch site
French Guiana (FRGUI)
Object type
Payload
Rocket body
Debris
Shape & HBR
Unknown shape, 1.1 m
Radar Cross Section
RCS unknown

Expand to show TLE details & history
Last TLE update: 15 hours ago

TLE from 15 hours ago
0 INTELSAT 33E DEB
1 64401U 16053AF  26166.03675770 -.00000055  00000-0  00000+0 0  9996
2 64401   1.4486  71.5796 0705318 338.3183  17.9812  1.05825981  6281
Epoch: 2026-06-15T00:52Z
TLE epoch observation values (Epoch: 2026-06-15T00:52:55.865Z)
Latitude
Longitude
154.00688°
Altitude
31,579.553 km
Speed
3.347 km/s
True Right ascension
04h 42m 16s
True Declination
0° 00' 00"
Sunlit
Object was in daylight at epoch
Visualization orbit readout
Latitude
Unknown
Longitude
Unknown
Altitude
Unknown
Speed
Unknown
Apparent Right ascension
Unknown
Apparent Declination
Unknown
Sunlit
N/A
Visualization observer readout
Local Sidereal Time
02:33:24
Azimuth
Unknown
Elevation
Unknown
Doppler factor
Unknown
Orbital elements
Apogee altitude
37,168.215 km
Perigee altitude
31,430.128 km
Semi-major axis
40,677.308 km
Eccentricity
0.07053
Inclination
1.4486°
RAAN
71.5796°
Arg. of periapsis
338.3183°
True anomaly
20.70268°
Mean anomaly
17.9812°
Eccentric anomaly
19.31807°
Mean motion
0.26455 °/min
Orbital period
1,360.78 mins
BSTAR
0
Loading maneuver chart data...
Computing Atmospheric mass density...
Loading historical data...
Loading historical data...
Loading historical data...
Loading historical data...
Loading historical data...
Loading historical data...
Loading historical data...

Documentation

Showing up to 5 results
|